Regional Weather Roundup
Issued by NWS

Home | Current Version | Previous Version | Graphics & Text | Print | Product List | Glossary On
Versions: 1 2 3 4 5 6 7 8 9 10 11 12 13 14 15 16 17 18 19 20 21 22 23 24 25 26 27 28 29 30 31 32 33 34 35 36 37 38 39 40 41 42 43 44 45 46 47 48 49 50
907
ASUS45 KTFX 231610
RWRMT
MONTANA REGIONAL WEATHER ROUNDUP
NATIONAL WEATHER SERVICE GREAT FALLS MT
1000 AM MDT SAT JUL 23 2016

NOTE: "FAIR" INDICATES FEW OR NO CLOUDS BELOW 12000 FEET WITH NO
SIGNIFICANT WEATHER AND/OR OBSTRUCTIONS TO VISIBILITY.

MTZ001>007-043-231700-
WEST OF THE DIVIDE

CITY           SKY/WX    TMP DP  RH WIND       PRES   REMARKS
KALISPELL      SUNNY     65  49  56 SE12      30.15S
MISSOULA       MOSUNNY   66  46  48 CALM      30.19F
BUTTE          SUNNY     61  36  39 NW13      30.24F
MULLAN PASS    PTSUNNY   50  46  86 W5        30.27R
ANACONDA         N/A     63  37  39 W12G17    30.21F
DEER LODGE       N/A     64  37  36 CALM      30.24S
EUREKA           N/A     66  46  48 E5        30.13S
HAMILTON         N/A     66  43  42 CALM      30.20F
LIBBY            N/A     61  52  72 N3        30.16S
PLAINS           N/A     61  53  74 MISG      30.17S
RONAN            N/A     68  47  46 E2        30.21S
$$

MTZ008-052>055-231700-
SOUTHWEST MONTANA

CITY           SKY/WX    TMP DP  RH WIND       PRES   REMARKS
BOZEMAN        SUNNY     65  43  44 N5        30.19R
DILLON         SUNNY     65  40  39 CALM      30.21F
W YELLOWSTONE  SUNNY     64  37  36 SW8       30.27S
ENNIS          SUNNY     64  39  39 VRB3      30.26F
THREE FORKS      N/A     70 -29   1 W13       30.14S
TWIN BRIDGES     N/A     67  34  29 S2        30.18S
$$

MTZ009-010-012-014-046-048-049-054-231700-
EAST SLOPES AND CENTRAL MONTANA

CITY           SKY/WX    TMP DP  RH WIND       PRES   REMARKS
CUT BANK       SUNNY     69  42  37 W12       30.08S
GREAT FALLS    PTSUNNY   71  39  31 NW9G24    30.09R
MALMSTROM AFB  MOSUNNY   70  40  33 NW15G25   30.09R
HELENA         MOSUNNY   70  40  33 W20G25    30.14F
CHOTEAU          N/A     70  39  32 NW12      30.12R
CONRAD           N/A     69  47  45 W15       30.10R
$$

MTZ011-013-016-021-045-047-050-051-231700-
NORTH CENTRAL MONTANA

CITY           SKY/WX    TMP DP  RH WIND       PRES   REMARKS
HAVRE          SUNNY     71  49  45 NW17      29.95R
LEWISTOWN      SUNNY     69  41  36 W23G33    30.08R
N BAR RANCH      N/A     66  41  39 W23G37    30.10R
CHINOOK          N/A     72  48  43 W15       29.93R
$$

MTZ017>020-022>027-061-062-231700-
NORTHEAST MONTANA

CITY           SKY/WX    TMP DP  RH WIND       PRES   REMARKS
GLASGOW        SUNNY     73  46  38 W25G37    29.87S
JORDAN           N/A     75  42  30 W26G35    29.94F
SIDNEY         SUNNY     75  54  47 NW20      29.87S
WOLF POINT     SUNNY     77  44  30 W23G33    29.87F
PLENTYWOOD       N/A     72  54  53 W15G23    29.83S
POPLAR           N/A     73  46  38 W23       29.86F
SCOBEY           N/A     70  51  50 W14       29.85S
$$

MTZ028>42-056>058-231700-
SOUTHCENTRAL AND SOUTHEAST MONTANA

CITY           SKY/WX    TMP DP  RH WIND       PRES   REMARKS
BAKER          SUNNY     75  48  38 NW26G35   29.94R
BILLINGS       MOSUNNY   75  40  28 NW14      30.05S
LIVINGSTON     SUNNY     70  41  34 W22G28    30.14R
MILES CITY     SUNNY     79  39  23 NW21G29   29.95F
EKALAKA          N/A     75  39  27 NW17      29.96R
FORSYTH          N/A     75  43  31 W12G17    29.98S
LAUREL           N/A     77  39  25 W18       30.03S
ROUNDUP          N/A     73  37  26 W12       29.96R
$$

REGIONAL REPORTS...DAKOTAS

CITY           SKY/WX    TMP DP  RH WIND       PRES   REMARKS
WILLISTON      SUNNY     76  55  48 NW12      29.84S
MINOT          CLOUDY    70  65  84 NW7       29.79R
DICKINSON      MOSUNNY   70  62  76 NW9       29.85S
BEACH            N/A     73  48  40 NW25G32   29.95R
CROSBY           N/A     73  61  64 W15       29.81F
WATFORD CITY     N/A    N/A N/A N/A MISG        N/A
BISMARCK       CLOUDY    70  65  84 NE16      29.78S
GRAND FORKS    LGT RAIN  70  66  87 N14       29.80S
FARGO          CLOUDY    82  68  62 E10       29.71F
BUFFALO SD       N/A     80  50  34 NW29G38   29.85R
RAPID CITY     SUNNY     83  47  28 NW35G47   29.90R
$$

REGIONAL REPORTS...WYOMING/IDAHO/WASHINGTON

CITY           SKY/WX    TMP DP  RH WIND       PRES   REMARKS
GILLETTE       SUNNY     74  42  31 N16G23    30.06S
SHERIDAN       SUNNY     78  42  27 N7        30.05S
BUFFALO WY     SUNNY     73  40  30 VRB6      30.12R
CODY           SUNNY     70  45  40 CALM      30.12F
YELLOWSTONE LA   N/A     60  29  30 VRB6G17   30.34R
IDAHO FALLS    SUNNY     66  42  41 SW15      30.21S
SALMON         SUNNY     66  39  37 W5        30.20S
BOISE          SUNNY     66  42  41 NW8       30.19S
SPOKANE        MOSUNNY   61  46  57 S10       30.19R
$$

REGIONAL REPORTS...ALBERTA

CITY           SKY/WX    TMP DP  RH WIND       PRES   REMARKS
EDMONTON       MOSUNNY   66  50  55 NW8       29.91S
LETHBRIDGE     MOSUNNY   68  46  45 W17       30.03S
MEDICINE HAT   PTSUNNY   66  57  72 W8G18     29.95R
WATERTON GATE    N/A     63  45  51 SW16G23     N/A
CARDSTON         N/A     66  43  42 W12G21      N/A
MILK RIVER       N/A     68  46  45 NW20G29     N/A
ONEFOUR          N/A     64  50  59 NW24G30     N/A
$$

REGIONAL REPORTS...SASKATCHEWAN

CITY           SKY/WX    TMP DP  RH WIND       PRES   REMARKS
SWIFT CURRENT  PTSUNNY   59  57  94 NW10      29.80S
REGINA         CLOUDY    66  61  82 W16G25    29.71F
SASKATOON      PTSUNNY   66  64  94 N9        29.75R
CYPRESS HILLS    N/A     61  48  63 N5          N/A
VAL MARIE        N/A     66  50  55 NW15G21     N/A
ROCKGLEN         N/A     66  48  52 W15G22      N/A
ASSINIBOIA       N/A     64  54  68 W14         N/A
$$




USA.gov is the U.S. government's official web portal to all federal, state and local government web resources and services.